{"data":{"norad_id":68509,"epoch":"2026-09-19T15:58:38.619264Z","epoch_age_seconds":119849,"freshness":"FRESH","line1":"1 68509U 26068B   26262.66572476  .00018298  00000+0  55093-3 0  9993","line2":"2 68509  53.1599 303.2906 0001229  92.5677 267.5467 15.34425267 26717","mean_motion":15.34425267,"eccentricity":0.0001229,"inclination_deg":53.1599,"raan_deg":303.2906,"arg_perigee_deg":92.5677,"mean_anomaly_deg":267.5467,"bstar":0.00055093,"rev_number":2671,"period_min":93.846212713597,"perigee_km":461.78741235286,"apogee_km":463.46887242486,"semimajor_km":6840.7651423889,"source":"CELESTRAK","updated_at":"2026-09-20T09:00:43.900468Z"}}